Regional Weather Roundup
Issued by NWS

Home | Current Version | Previous Version | Graphics & Text | Print | Product List | Glossary On
Versions: 1 2 3 4 5 6 7 8 9 10 11 12 13 14 15 16 17 18 19 20 21 22 23 24 25 26 27 28 29 30 31 32 33 34 35 36 37 38 39 40 41 42 43 44 45 46 47 48 49 50
000
ASUS43 KDTX 241601
RWRMI
MICHIGAN HOURLY REGIONAL WEATHER ROUNDUP
NATIONAL WEATHER SERVICE DETROIT/PONTIAC MI
1200 PM EDT SUN MAY 24 2015

NOTE: "FAIR" INDICATES FEW OR NO CLOUDS BELOW 12,000 FEET WITH NO
SIGNIFICANT WEATHER AND/OR OBSTRUCTION TO VISIBILITY.

MIZ047>049-052>055-059>063-066>070-074>076-081>083-241700-
SOUTHEAST LOWER MICHIGAN

CITY           SKY/WX    TMP DP  RH WIND       PRES   REMARKS
ADRIAN         PTSUNNY   78  48  34 S13G22    30.25F
ALMA           CLOUDY    74  48  38 SW10      30.22S
ANN ARBOR      CLOUDY    73  51  46 SW10      30.26R
BAD AXE        PTSUNNY   76  49  38 SW7       30.22R
CARO           PTSUNNY   77  51  40 SW13      30.22R
DETROIT CITY   CLOUDY    75  51  43 W8        30.25S
DETROIT        CLOUDY    76  50  40 S10       30.26S
FLINT          CLOUDY    77  51  40 SW10      30.24R
GROSSE ILE     PTSUNNY   70  54  56 S8        30.25S
HILLSDALE      MOSUNNY   77  49  37 S12G17    30.25S
HOWELL         CLOUDY    74  49  40 S8        30.25S

CITY           SKY/WX    TMP DP  RH WIND       PRES   REMARKS
JACKSON        CLOUDY    74  51  44 S12       30.24F
LAMBERTVILLE   PTSUNNY   79  46  31 S9        30.25S
LANSING        CLOUDY    71  51  49 S12       30.25R
LAPEER         FAIR      78  44  29 SW12      30.24R
MASON          CLOUDY    71  50  47 SW5       30.25S
MONROE         PTSUNNY   73  48  40 SW7       30.24S
MT. CLEMENS    PTSUNNY   78  52  41 SW7       30.22S
PONTIAC        CLOUDY    75  49  39 SW9       30.25R
PORT HOPE        N/A     61  54  77 E8        30.20R
PORT HURON     MOSUNNY   77  52  41 SW5       30.24S
TRI CITIES     CLOUDY    78  49  35 SW7       30.21S
MIDLAND        FAIR      77  48  35 SW9       30.20S
TROY           CLOUDY    76  47  36 S7        30.27S
SAGINAW HB     CLOUDY    79  45  29 SW10      30.21S
$$
MIZ043>046-050>051-056>058-064>065-071>073-077>080-241700-
SOUTHWEST LOWER MICHIGAN

CITY           SKY/WX    TMP DP  RH WIND       PRES   REMARKS
BATTLE CREEK   CLOUDY    72  52  49 S5        30.24S
BENTON HARBOR  CLOUDY    67  57  70 SE6       30.18F
BIG RAPIDS     CLOUDY    72  49  44 S3        30.20R
COLDWATER      CLOUDY    72  49  45 S10       30.23S
FREMONT        DRIZZLE   69  50  50 SW8       30.21R
HOLLAND        CLOUDY    70  55  59 SE5       30.21F
GRAND RAPIDS   LGT RAIN  71  53  52 S7        30.22S
IONIA          FAIR      73  49  43 S10       30.22S
KALAMAZOO      CLOUDY    73  53  49 S3        30.22F
LUDINGTON      CLOUDY    71  53  53 SW5       30.19R
MARSHALL       CLOUDY    73  51  46 S5        30.23F
MOUNT PLEASANT CLOUDY    77  48  35 S9        30.20S
MUSKEGON       LGT RAIN  71  48  43 S6        30.21R
SOUTH HAVEN    LGT RAIN  68  53  59 CALM      30.19F
$$
MIZ016>042-241700-
NORTHERN LOWER MICHIGAN

CITY           SKY/WX    TMP DP  RH WIND       PRES   REMARKS
ALPENA         PTSUNNY   76  43  30 SW10      30.17F
BEAVER ISLAND  CLOUDY    69  36  29 SW10      30.16R
BELLAIRE       PTSUNNY   77  44  29 S3        30.16S
CADILLAC       CLOUDY    74  50  42 S9        30.19S
CHARLEVOIX     CLOUDY    70  48  45 N3        30.19R
FRANKFORT      CLOUDY    73  43  34 W6        30.16S
GAYLORD        PTSUNNY   74  43  32 SW9       30.18S
HARBOR SPRINGS CLOUDY    71  45  39 CALM      30.16S
HOUGHTON LAKE  CLOUDY    75  46  35 SW9       30.20R
MANISTEE       CLOUDY    73  50  43 SW7       30.18R
OSCODA         PTSUNNY   80  46  30 S7        30.18S
PELLSTON       CLOUDY    73  43  33 W5        30.16S
ROGERS CITY    PTSUNNY   76  46  33 W6        30.17F
TRAVERSE CITY  CLOUDY    71  46  40 NE3       30.15S
$$
MIZ007>008-015-241700-
EASTERN UPPER MICHIGAN

CITY           SKY/WX    TMP DP  RH WIND       PRES   REMARKS
KINROSS        PTSUNNY   72  45  37 SW7       30.14S
MACKINAC ISLAN CLOUDY    64  41  41 W7        30.16R
NEWBERRY       CLOUDY    72  42  34 SW9       30.13S
S. S. MARIE    PTSUNNY   72  46  39 VRB6      30.12F
$$
MIZ004>006-011>014-085-241700-
CENTRAL UPPER MICHIGAN

CITY           SKY/WX    TMP DP  RH WIND       PRES   REMARKS
MANISTIQUE     PTSUNNY   60  42  51 S7        30.15R
ESCANABA       CLOUDY    64  46  52 SE7       30.13S
MENOMINEE      CLOUDY    70  48  46 S5        30.13S
SAWYER-GWINN   PTSUNNY   73  43  33 SW8       30.13R
$$
MIZ001>003-009>011-084-241700-
WESTERN UPPER MICHIGAN

CITY           SKY/WX    TMP DP  RH WIND       PRES   REMARKS
IRON MOUNTAIN  CLOUDY    74  45  35 S6        30.12F
HOUGHTON       PTSUNNY   70  43  37 W9        30.10R
COPPER HARBOR    N/A     60  43  53 N9        30.06F
IRONWOOD       CLOUDY    70  48  46 CALM      30.08F
$$

ABBREVIATIONS USED IN REMARKS
   TC - TEMPERATURE IN CELSIUS
  WCI - WIND CHILL INDEX
   HX - HEAT INDEX
  VSB - VISIBILITY



USA.gov is the U.S. government's official web portal to all federal, state and local government web resources and services.